Miscellaneous Local Product
Issued by NWS North Platte, NE

Home | Current Version | Previous Version | Graphics & Text | Print | Product List | Glossary On
Versions: 1 2 3 4 5 6 7 8 9 10 11 12 13 14 15 16 17 18 19 20 21 22 23 24 25 26 27 28 29 30 31 32 33 34 35 36 37 38 39 40 41 42 43 44 45 46 47 48 49 50
000
AXUS43 KLBF 290510
MISLBF


WESTERN AND NORTH CENTRAL NEBRASKA HOURLY WEATHER ROUNDUP
NATIONAL WEATHER SERVICE NORTH PLATTE NE
1100 PM CST FRI NOV 28 2014

***STATIONS NOT REPORTING VARIABLES SUCH AS SKY/WEATHER OR
PRESSURE ARE PROVIDED BY THE NEBRASKA DEPARTMENT OF
ROADS...RAWS...AND APRS NETWORKS...AND ARE NOT UNDER
NATIONAL WEATHER SERVICE QUALITY CONTROL***

...OBSERVATIONS IN AND NEAR THE EASTERN PANHANDLE OF NEBRASKA...

CITY           SKY/WX    TMP DP  RH WIND       PRES   REMARKS
PINE RIDGE     CLEAR     49  22  34 MISG      29.55F
CHADRON        PTCLDY   N/A N/A N/A SW14      29.59S
ALLIANCE       MOCLDY    38  19  46 SW10      29.66F WCI  31
SIDNEY         CLOUDY    47  19  33 W12       29.72S
WHITECLAY        N/A     57  19  23 W15         N/A
CRESCENT LAKE    N/A     43  23  45 CALM        N/A
LISCO            N/A     36  23  58 CALM        N/A
BIG SPRINGS      N/A     35  29  79 W6          N/A  WCI  30
$$

...OBSERVATIONS IN NORTH CENTRAL NEBRASKA...

CITY           SKY/WX    TMP DP  RH WIND       PRES   REMARKS
VALENTINE      PTCLDY    45  23  42 W9        29.54F
THEDFORD       MOCLDY    52  21  30 W7        29.62S
AINSWORTH      MOCLDY    46  22  37 SW12      29.55F
O`NEILL        MOCLDY    40  29  63 S8        29.55S WCI  35
ORD              N/A     38  22  52 MISG      29.59F
BROKEN BOW     PTCLDY    52  23  32 W9        29.62F
BROWNLEE         N/A     46  18  33 CALM        N/A
SPRINGVIEW       N/A     28  24  83 CALM        N/A
BREWSTER         N/A     53  20  27 W16         N/A
SARGENT          N/A     32  19  58 CALM        N/A
COMSTOCK         N/A     49  19  30 W10         N/A
CHAMBERS         N/A     43  25  48 SW6         N/A
EWING            N/A     38  27  65 CALM        N/A
$$

...OBSERVATIONS IN SOUTHWEST NEBRASKA AND FAR NORTHEAST COLORADO...

CITY           SKY/WX    TMP DP  RH WIND       PRES   REMARKS
WRAY           FAIR      38  22  52 W6        29.72F WCI  34
HOLYOKE        FAIR      37  25  60 W10       29.71F WCI  30
IMPERIAL       CLOUDY    38  20  48 SW5       29.69F WCI  34
OGALLALA       CLOUDY    34  27  76 W6        29.68F WCI  29
NORTH PLATTE   MOCLDY    30  21  69 W5        29.67S WCI  25
MCCOOK         CLOUDY    40  14  34 W5        29.68F
LEXINGTON      MOCLDY    39  18  42 W6        29.66S WCI  35
PAXTON           N/A     37  28  70 CALM        N/A
BRADY            N/A     35  21  57 CALM        N/A
GOTHENBURG       N/A     43  19  38 W3          N/A
CALLAWAY         N/A     48  25  40 W8          N/A
$$

...NORTH PLATTE AREA...

CITY           SKY/WX    TMP DP  RH WIND       PRES   REMARKS
AIRPORT        MOCLDY    30  21  69 W5        29.67S WCI  25
DOWNTOWN         N/A     41  25  52 CALM        N/A
$$

...SOME WEATHER OBSERVATIONS FROM AROUND THE REGION...

CITY           SKY/WX    TMP DP  RH WIND       PRES   REMARKS
DENVER         CLOUDY    59   9  13 W23G32    29.78F
LARAMIE        CLEAR     39  13  34 S13G18    29.84S WCI  31
CHEYENNE       MOCLDY    44  14  29 SW12      29.77F
SCOTTSBLUFF    CLOUDY    54  18  24 SW14      29.67F
RAPID CITY     PTCLDY    49  22  34 W6        29.49F
PIERRE         PTCLDY    30  26  85 SE8       29.46F WCI  22
WINNER         FAIR      49  26  41 SW9       29.50F
SIOUX FALLS    CLEAR     24  22  91 E5        29.56F WCI  18
OMAHA          MOCLDY    37  31  78 SE8       29.62S WCI  31
GRAND ISLAND   MOCLDY    49  21  33 SW12      29.62F
KANSAS CITY    CLOUDY    52  38  58 S16       29.72F
WICHITA        CLOUDY    50  40  68 S7        29.75F
HAYS           MOCLDY    46  25  42 SW5       29.70F
LIBERAL        CLOUDY    43  18  36 SW10      29.74F
GOODLAND       CLOUDY    49  15  25 SW8       29.72F
$$



USA.gov is the U.S. government's official web portal to all federal, state and local government web resources and services.